#�ϑ�����,���ϕ���,���ϕ���,�ő啗��,�ő啗����������,�ő�u�ԕ���,�ő�u�ԕ�����������
#(�N����),(m/s)   ,(16����),(m/s)   ,(16����)        ,(m/s)       ,(16����)            
2012/3/7 0:01,0.4,1,0.5,1,0.8,15
2012/3/7 0:02,0.5,1,0.5,1,0.6,15
2012/3/7 0:03,0.5,1,0.5,1,1,15
2012/3/7 0:04,0.5,16,0.5,1,0.6,15
2012/3/7 0:05,0.4,16,0.5,1,0.5,15
2012/3/7 0:06,0.4,16,0.4,1,0.6,15
2012/3/7 0:07,0.3,16,0.4,1,0.5,15
2012/3/7 0:08,0.3,16,0.3,1,0.9,15
2012/3/7 0:09,0.4,16,0.4,1,0.9,15
2012/3/7 0:10,0.4,15,0.4,1,0.9,15
2012/3/7 0:11,0.5,15,0.5,1,1,14
2012/3/7 0:12,0.5,15,0.5,1,0.9,15
2012/3/7 0:13,0.5,15,0.5,1,1,14
2012/3/7 0:14,0.5,15,0.5,16,1,14
2012/3/7 0:15,0.5,15,0.6,15,0.6,14
2012/3/7 0:16,0.5,14,0.5,15,0,14
2012/3/7 0:17,0.5,14,0.5,15,0.4,10
2012/3/7 0:18,0.4,14,0.5,15,0.5,10
2012/3/7 0:19,0.4,13,0.4,15,0.1,10
2012/3/7 0:20,0.4,13,0.4,15,1,11
2012/3/7 0:21,0.3,12,0.4,15,0.6,11
2012/3/7 0:22,0.3,12,0.3,15,0.6,11
2012/3/7 0:23,0.3,11,0.3,15,0.4,10
2012/3/7 0:24,0.2,11,0.3,15,0,12
2012/3/7 0:25,0.2,11,0.2,15,0.3,12
2012/3/7 0:26,0.2,10,0.2,14,0.1,8
2012/3/7 0:27,0.2,10,0.2,14,0,8
2012/3/7 0:28,0.1,10,0.2,14,0.1,8
2012/3/7 0:29,0.1,10,0.1,13,0,8
2012/3/7 0:30,0.1,9,0.1,13,0,8
2012/3/7 0:31,0.1,9,0.1,12,0,8
2012/3/7 0:32,0,9,0,12,0,8
2012/3/7 0:33,0,8,0,11,0.1,8
2012/3/7 0:34,0,8,0,11,0,8
2012/3/7 0:35,0,8,0,11,0.8,15
2012/3/7 0:36,0.1,8,0.1,10,0.8,16
2012/3/7 0:37,0.2,8,0.2,10,0.9,16
2012/3/7 0:38,0.2,8,0.2,8,0.8,16
2012/3/7 0:39,0.3,7,0.3,8,0.8,16
2012/3/7 0:40,0.3,16,0.3,8,1,16
2012/3/7 0:41,0.4,16,0.4,16,0.8,16
2012/3/7 0:42,0.4,16,0.4,16,0.3,16
2012/3/7 0:43,0.4,16,0.4,16,1,16
2012/3/7 0:44,0.5,16,0.5,16,0.9,16
2012/3/7 0:45,0.5,16,0.5,16,0.6,2
2012/3/7 0:46,0.5,16,0.5,16,0.5,16
2012/3/7 0:47,0.4,16,0.5,16,0.6,1
2012/3/7 0:48,0.4,16,0.4,16,0.5,2
2012/3/7 0:49,0.4,16,0.4,16,0.8,1
2012/3/7 0:50,0.4,16,0.4,16,1.6,15
2012/3/7 0:51,0.6,16,0.6,16,2.5,15
2012/3/7 0:52,0.8,16,0.8,16,3,15
2012/3/7 0:53,0.9,16,0.9,16,3,15
2012/3/7 0:54,1,16,1,16,2.7,15
2012/3/7 0:55,1.1,16,1.1,16,2.1,15
2012/3/7 0:56,1.3,16,1.3,16,2.4,15
2012/3/7 0:57,1.4,16,1.4,16,2.1,15
2012/3/7 0:58,1.5,15,1.6,15,1.8,14
2012/3/7 0:59,1.6,15,1.6,15,1.6,13
2012/3/7 1:00,1.7,15,1.7,15,1.9,15
2012/3/7 1:01,1.6,15,1.7,15,1.8,15
2012/3/7 1:02,1.5,15,1.6,15,1.9,1
2012/3/7 1:03,1.4,15,1.5,15,1.9,14
2012/3/7 1:04,1.4,15,1.4,15,1.8,14
2012/3/7 1:05,1.2,15,1.3,15,0.8,13
2012/3/7 1:06,1.1,15,1.2,15,1.1,1
2012/3/7 1:07,1,14,1.1,15,1.1,15
2012/3/7 1:08,0.9,14,1,15,0.6,12
2012/3/7 1:09,0.8,14,0.9,15,0.8,14
2012/3/7 1:10,0.7,14,0.8,15,1.1,11
2012/3/7 1:11,0.7,13,0.7,15,0.5,11
2012/3/7 1:12,0.5,13,0.6,15,0.3,11
2012/3/7 1:13,0.4,13,0.5,15,0,12
2012/3/7 1:14,0.3,13,0.4,15,0.1,12
2012/3/7 1:15,0.3,12,0.3,15,0.6,9
2012/3/7 1:16,0.3,12,0.3,15,0.9,9
2012/3/7 1:17,0.3,11,0.3,14,1.1,9
2012/3/7 1:18,0.4,11,0.4,14,1.5,9
2012/3/7 1:19,0.5,10,0.5,14,1.4,8
2012/3/7 1:20,0.5,10,0.5,14,1.4,9
2012/3/7 1:21,0.6,10,0.6,13,1.3,9
2012/3/7 1:22,0.7,9,0.7,10,1.5,9
2012/3/7 1:23,0.8,9,0.8,9,1.6,9
2012/3/7 1:24,0.9,9,0.9,9,1.3,8
2012/3/7 1:25,1,9,1,9,0.9,9
2012/3/7 1:26,1,9,1,9,0.6,12
2012/3/7 1:27,0.9,9,1,9,0.6,11
2012/3/7 1:28,0.8,9,0.9,9,0.5,11
2012/3/7 1:29,0.8,9,0.8,9,1.3,9
2012/3/7 1:30,0.7,9,0.8,9,0.9,10
2012/3/7 1:31,0.7,9,0.7,9,0.8,9
2012/3/7 1:32,0.5,9,0.6,9,0,9
2012/3/7 1:33,0.4,9,0.5,9,0.8,11
2012/3/7 1:34,0.4,10,0.4,9,1.1,11
2012/3/7 1:35,0.5,10,0.5,9,1.3,11
2012/3/7 1:36,0.5,10,0.5,9,1.4,10
2012/3/7 1:37,0.6,9,0.6,9,1.5,9
2012/3/7 1:38,0.7,9,0.7,9,1.3,9
2012/3/7 1:39,0.7,10,0.7,9,0.9,10
2012/3/7 1:40,0.6,10,0.7,9,0.6,11
2012/3/7 1:41,0.6,10,0.6,9,0.4,9
2012/3/7 1:42,0.6,10,0.6,9,0.1,9
2012/3/7 1:43,0.6,10,0.6,9,0,9
2012/3/7 1:44,0.5,10,0.6,9,0,9
2012/3/7 1:45,0.4,10,0.5,9,0.6,14
2012/3/7 1:46,0.4,10,0.4,9,1,16
2012/3/7 1:47,0.4,10,0.4,9,1.3,1
2012/3/7 1:48,0.4,10,0.4,9,1.3,2
2012/3/7 1:49,0.4,10,0.4,10,0.9,2
2012/3/7 1:50,0.4,2,0.4,10,1.1,2
2012/3/7 1:51,0.5,1,0.5,10,1.4,2
2012/3/7 1:52,0.6,1,0.6,10,1,1
2012/3/7 1:53,0.6,1,0.6,10,1.5,1
2012/3/7 1:54,0.7,1,0.7,1,1.4,1
2012/3/7 1:55,0.8,1,0.8,1,1.3,2
2012/3/7 1:56,0.8,2,0.8,1,1.3,2
2012/3/7 1:57,0.8,2,0.8,1,1.6,2
2012/3/7 1:58,0.9,2,0.9,2,1.6,2
2012/3/7 1:59,0.9,2,0.9,2,1.5,16
2012/3/7 2:00,0.9,1,0.9,2,1.6,16
2012/3/7 2:01,1,1,1,1,2,16
2012/3/7 2:02,1.1,1,1.1,1,1.9,16
2012/3/7 2:03,1.2,1,1.2,1,1.9,1
2012/3/7 2:04,1.2,1,1.2,1,1.9,2
2012/3/7 2:05,1.3,1,1.3,1,1.8,1
2012/3/7 2:06,1.3,1,1.3,1,1.3,1
2012/3/7 2:07,1.2,1,1.3,1,0.8,15
2012/3/7 2:08,1.1,1,1.2,1,1.1,15
2012/3/7 2:09,1.1,16,1.1,1,0.8,15
2012/3/7 2:10,1,16,1.1,1,0.4,15
2012/3/7 2:11,0.8,16,1,1,0,15
2012/3/7 2:12,0.7,16,0.8,1,0,15
2012/3/7 2:13,0.6,16,0.7,1,0.6,13
2012/3/7 2:14,0.5,15,0.6,1,1,13
2012/3/7 2:15,0.4,15,0.5,1,1,14
2012/3/7 2:16,0.4,15,0.4,1,0.5,14
2012/3/7 2:17,0.3,15,0.4,1,0.4,15
2012/3/7 2:18,0.3,15,0.3,1,0.4,15
2012/3/7 2:19,0.2,15,0.3,16,0.3,15
2012/3/7 2:20,0.2,14,0.2,16,0.4,11
2012/3/7 2:21,0.3,14,0.3,16,0.6,11
2012/3/7 2:22,0.3,14,0.3,16,1,8
2012/3/7 2:23,0.4,14,0.4,16,0.8,7
2012/3/7 2:24,0.3,14,0.4,15,0.8,6
2012/3/7 2:25,0.3,16,0.3,15,0.8,4
2012/3/7 2:26,0.4,2,0.4,15,1,3
2012/3/7 2:27,0.4,3,0.4,14,0.8,3
2012/3/7 2:28,0.4,4,0.4,14,0.5,3
2012/3/7 2:29,0.4,4,0.4,14,0.3,3
2012/3/7 2:30,0.4,5,0.4,14,0.4,6
2012/3/7 2:31,0.4,5,0.4,14,0.5,7
2012/3/7 2:32,0.4,5,0.4,14,0.3,6
2012/3/7 2:33,0.4,5,0.4,14,0.8,6
2012/3/7 2:34,0.4,5,0.4,1,0.9,6
2012/3/7 2:35,0.4,5,0.4,1,0.9,6
2012/3/7 2:36,0.3,5,0.4,2,0.5,10
2012/3/7 2:37,0.3,6,0.3,3,0.8,8
2012/3/7 2:38,0.3,6,0.3,4,0.4,7
2012/3/7 2:39,0.3,6,0.3,4,0.9,7
2012/3/7 2:40,0.3,7,0.3,5,0.4,7
2012/3/7 2:41,0.3,7,0.3,5,0,10
2012/3/7 2:42,0.3,7,0.3,5,0,10
2012/3/7 2:43,0.2,7,0.3,5,0.3,7
2012/3/7 2:44,0.2,7,0.2,5,0.5,5
2012/3/7 2:45,0.1,7,0.2,5,0.5,4
2012/3/7 2:46,0.1,7,0.1,5,0.1,2
2012/3/7 2:47,0.1,6,0.1,6,0,16
2012/3/7 2:48,0.1,4,0.1,6,0.1,16
2012/3/7 2:49,0.1,16,0.1,6,0,16
2012/3/7 2:50,0.1,16,0.1,7,0,16
2012/3/7 2:51,0.1,1,0.1,7,0.3,2
2012/3/7 2:52,0.1,1,0.1,7,0.6,4
2012/3/7 2:53,0.1,1,0.1,7,1.5,1
2012/3/7 2:54,0.2,1,0.2,7,1.5,16
2012/3/7 2:55,0.3,1,0.3,1,1.4,16
2012/3/7 2:56,0.3,1,0.3,1,1,1
2012/3/7 2:57,0.3,1,0.3,1,0.4,1
2012/3/7 2:58,0.4,1,0.4,1,0.4,3
2012/3/7 2:59,0.4,1,0.4,1,0.3,2
2012/3/7 3:00,0.4,1,0.4,1,0.5,1
2012/3/7 3:01,0.5,2,0.5,2,1,2
2012/3/7 3:02,0.5,2,0.5,2,0.8,4
2012/3/7 3:03,0.5,2,0.5,2,0.8,3
2012/3/7 3:04,0.4,2,0.5,2,0.6,4
2012/3/7 3:05,0.4,3,0.4,2,0.9,4
2012/3/7 3:06,0.4,3,0.4,2,0.6,4
2012/3/7 3:07,0.4,3,0.4,2,0.5,4
2012/3/7 3:08,0.4,3,0.5,2,0.6,6
2012/3/7 3:09,0.5,4,0.5,2,0.4,6
2012/3/7 3:10,0.4,4,0.5,2,0.1,6
2012/3/7 3:11,0.4,4,0.4,2,0,6
2012/3/7 3:12,0.3,5,0.4,2,0,6
2012/3/7 3:13,0.3,5,0.3,2,0.3,9
2012/3/7 3:14,0.2,6,0.3,3,0.3,9
2012/3/7 3:15,0.1,6,0.2,3,0.3,9
2012/3/7 3:16,0.1,6,0.2,3,0.5,9
2012/3/7 3:17,0.1,7,0.1,3,0.1,9
2012/3/7 3:18,0,7,0.1,3,0,11
2012/3/7 3:19,0,7,0,4,0,3
2012/3/7 3:20,0,7,0,4,0.1,6
2012/3/7 3:21,0,7,0,4,0.1,6
2012/3/7 3:22,0,8,0,5,0.5,15
2012/3/7 3:23,0.1,9,0.1,5,0.5,12
2012/3/7 3:24,0.1,10,0.1,6,0.4,14
2012/3/7 3:25,0.1,14,0.1,6,0.8,16
2012/3/7 3:26,0.2,15,0.2,15,0.8,15
2012/3/7 3:27,0.2,16,0.2,15,0.4,16
2012/3/7 3:28,0.2,16,0.2,15,0,16
2012/3/7 3:29,0.2,16,0.2,15,0,16
2012/3/7 3:30,0.2,16,0.2,15,0.5,1
2012/3/7 3:31,0.2,16,0.2,15,0.4,2
2012/3/7 3:32,0.2,16,0.2,15,0.6,16
2012/3/7 3:33,0.2,1,0.2,15,0.8,2
2012/3/7 3:34,0.3,1,0.3,1,1,1
2012/3/7 3:35,0.3,1,0.3,1,1.1,1
2012/3/7 3:36,0.3,1,0.3,1,0.8,16
2012/3/7 3:37,0.3,1,0.3,1,0.3,16
2012/3/7 3:38,0.3,1,0.3,1,0.3,16
2012/3/7 3:39,0.3,1,0.3,1,0.5,1
2012/3/7 3:40,0.3,1,0.4,1,0.5,2
2012/3/7 3:41,0.3,1,0.3,1,0.1,1
2012/3/7 3:42,0.3,1,0.3,1,0,1
2012/3/7 3:43,0.2,1,0.3,1,0.1,6
2012/3/7 3:44,0.2,1,0.2,1,0.1,3
2012/3/7 3:45,0.1,1,0.2,1,0,11
2012/3/7 3:46,0.1,1,0.1,1,0,13
2012/3/7 3:47,0.1,1,0.1,1,0,2
2012/3/7 3:48,0.1,1,0.1,1,0.4,14
2012/3/7 3:49,0,16,0.1,1,0.1,16
2012/3/7 3:50,0,16,0,1,0.3,1
2012/3/7 3:51,0,16,0,1,0.5,1
2012/3/7 3:52,0.1,16,0.1,1,0.9,2
2012/3/7 3:53,0.2,16,0.2,1,1.5,1
2012/3/7 3:54,0.3,16,0.3,16,1.9,1
2012/3/7 3:55,0.3,16,0.3,16,1,16
2012/3/7 3:56,0.3,16,0.3,16,1.3,15
2012/3/7 3:57,0.3,16,0.3,16,0.3,16
2012/3/7 3:58,0.4,1,0.4,16,0.6,4
2012/3/7 3:59,0.4,1,0.4,16,0.9,3
2012/3/7 4:00,0.4,2,0.5,2,0.8,2
2012/3/7 4:01,0.4,2,0.4,2,0.5,1
2012/3/7 4:02,0.4,1,0.4,2,0.6,16
2012/3/7 4:03,0.4,1,0.4,2,0.3,16
2012/3/7 4:04,0.3,1,0.3,2,0.1,10
2012/3/7 4:05,0.2,2,0.3,2,0.5,9
2012/3/7 4:06,0.2,2,0.2,2,0.4,9
2012/3/7 4:07,0.2,1,0.2,2,0.1,14
2012/3/7 4:08,0.2,16,0.2,2,1.5,16
2012/3/7 4:09,0.2,16,0.2,2,1.1,16
2012/3/7 4:10,0.2,15,0.2,2,0.9,13
2012/3/7 4:11,0.3,14,0.3,2,1.5,14
2012/3/7 4:12,0.3,14,0.3,1,1,13
2012/3/7 4:13,0.4,14,0.4,14,1.1,1
2012/3/7 4:14,0.6,15,0.6,15,3.9,16
2012/3/7 4:15,0.8,15,0.8,15,3.7,15
2012/3/7 4:16,1,16,1,16,2.9,1
2012/3/7 4:17,1.2,16,1.2,16,2.5,1
2012/3/7 4:18,1.3,16,1.3,16,2,1
2012/3/7 4:19,1.3,16,1.3,16,1.6,16
2012/3/7 4:20,1.3,16,1.3,16,0.8,16
2012/3/7 4:21,1.4,16,1.4,16,2.1,1
2012/3/7 4:22,1.5,16,1.5,16,3.1,15
2012/3/7 4:23,1.7,16,1.7,16,3.7,16
2012/3/7 4:24,1.7,16,1.8,16,3.5,16
2012/3/7 4:25,1.7,16,1.7,16,3.3,16
2012/3/7 4:26,1.7,16,1.7,16,3.1,16
2012/3/7 4:27,1.7,16,1.7,16,3.5,16
2012/3/7 4:28,1.8,16,1.8,16,3.2,15
2012/3/7 4:29,2,16,2,16,4.4,16
2012/3/7 4:30,2.2,16,2.2,16,2.9,1
2012/3/7 4:31,2.3,16,2.3,16,3.6,15
2012/3/7 4:32,2.3,16,2.3,16,3.5,15
2012/3/7 4:33,2.2,16,2.3,16,3.3,14
2012/3/7 4:34,2.2,16,2.2,16,3.3,15
2012/3/7 4:35,2.1,16,2.2,16,3,1
2012/3/7 4:36,2.2,16,2.2,16,3.9,15
2012/3/7 4:37,2.2,16,2.2,16,3.8,16
2012/3/7 4:38,2.2,16,2.3,16,3.2,16
2012/3/7 4:39,2.2,16,2.2,16,4.4,14
2012/3/7 4:40,2.3,16,2.3,16,4.3,15
2012/3/7 4:41,2.3,16,2.3,16,5.7,16
2012/3/7 4:42,2.5,16,2.5,16,5,16
2012/3/7 4:43,2.6,16,2.6,16,4.7,15
2012/3/7 4:44,2.7,16,2.7,16,4.8,15
2012/3/7 4:45,2.7,15,2.7,16,2.9,15
2012/3/7 4:46,2.7,15,2.7,16,4.9,16
2012/3/7 4:47,2.7,15,2.8,15,4.8,15
2012/3/7 4:48,2.8,15,2.8,15,4.4,16
2012/3/7 4:49,2.8,15,2.8,15,3.9,15
2012/3/7 4:50,2.9,16,2.9,15,4.2,16
2012/3/7 4:51,2.9,15,2.9,15,4.2,15
2012/3/7 4:52,2.7,15,2.9,15,4.8,16
2012/3/7 4:53,2.7,16,2.7,15,4.3,16
2012/3/7 4:54,2.7,16,2.7,15,3.8,1
2012/3/7 4:55,2.7,16,2.7,15,3,16
2012/3/7 4:56,2.7,16,2.7,15,3.3,16
2012/3/7 4:57,2.7,16,2.7,15,3.8,16
2012/3/7 4:58,2.6,16,2.7,15,3.7,16
2012/3/7 4:59,2.5,16,2.6,15,3.8,16
2012/3/7 5:00,2.4,16,2.5,16,3.8,1
2012/3/7 5:01,2.3,16,2.4,15,2.7,16
2012/3/7 5:02,2.3,16,2.3,15,3.5,1
2012/3/7 5:03,2.2,16,2.3,16,3.1,1
2012/3/7 5:04,2.2,16,2.2,16,2.9,14
2012/3/7 5:05,2.2,16,2.2,16,3.1,15
2012/3/7 5:06,2.1,16,2.2,16,2,1
2012/3/7 5:07,1.9,16,2.1,16,1.3,14
2012/3/7 5:08,1.8,15,1.9,16,1.4,14
2012/3/7 5:09,1.6,16,1.8,16,0.9,2
2012/3/7 5:10,1.5,16,1.6,16,1.3,1
2012/3/7 5:11,1.3,15,1.4,16,0.9,1
2012/3/7 5:12,1.1,15,1.3,16,0.4,14
2012/3/7 5:13,0.9,15,1.1,16,0.9,8
2012/3/7 5:14,0.7,15,0.9,16,0.5,7
2012/3/7 5:15,0.6,14,0.7,16,0.6,8
2012/3/7 5:16,0.5,14,0.6,16,0.8,16
2012/3/7 5:17,0.4,15,0.5,16,0.9,2
2012/3/7 5:18,0.4,16,0.4,15,1.6,16
2012/3/7 5:19,0.5,16,0.5,16,1.4,16
2012/3/7 5:20,0.5,15,0.5,16,2.6,16
2012/3/7 5:21,0.7,15,0.7,15,2.7,15
2012/3/7 5:22,0.9,15,0.9,15,3,15
2012/3/7 5:23,1,15,1,16,2.4,15
2012/3/7 5:24,1.2,15,1.2,15,2.6,15
2012/3/7 5:25,1.4,15,1.4,15,2.7,15
2012/3/7 5:26,1.6,15,1.6,15,2.4,15
2012/3/7 5:27,1.6,15,1.6,15,1.5,15
2012/3/7 5:28,1.7,15,1.7,15,2.2,15
2012/3/7 5:29,1.7,15,1.7,15,2.5,14
2012/3/7 5:30,1.6,15,1.7,15,1.8,16
2012/3/7 5:31,1.5,15,1.6,15,1.4,16
2012/3/7 5:32,1.4,15,1.5,15,2.2,16
2012/3/7 5:33,1.5,15,1.5,15,3.2,14
2012/3/7 5:34,1.5,15,1.5,15,3.1,15
2012/3/7 5:35,1.5,15,1.5,15,3.1,15
2012/3/7 5:36,1.6,15,1.6,15,3.3,15
2012/3/7 5:37,1.7,15,1.7,15,2.7,15
2012/3/7 5:38,1.8,15,1.8,15,2.9,16
2012/3/7 5:39,1.8,15,1.8,15,3,16
2012/3/7 5:40,2,15,2,15,3.9,15
2012/3/7 5:41,2.1,15,2.1,15,2.7,15
2012/3/7 5:42,2.2,15,2.2,15,2.7,15
2012/3/7 5:43,2.1,15,2.2,15,2.1,16
2012/3/7 5:44,2,15,2.1,15,1.9,16
2012/3/7 5:45,1.9,16,2,15,2.7,16
2012/3/7 5:46,1.9,15,1.9,15,3.7,16
2012/3/7 5:47,1.9,15,2,15,3.5,15
2012/3/7 5:48,1.9,15,1.9,15,1.9,16
2012/3/7 5:49,2,15,2,15,4.5,16
2012/3/7 5:50,2,15,2,15,3.9,16
2012/3/7 5:51,2.2,16,2.2,15,4.9,15
2012/3/7 5:52,2.1,16,2.2,15,3.3,15
2012/3/7 5:53,2.2,16,2.2,16,2.7,15
2012/3/7 5:54,2.4,15,2.4,15,3.8,15
2012/3/7 5:55,2.4,15,2.4,15,3.6,16
2012/3/7 5:56,2.4,15,2.4,15,3.8,15
2012/3/7 5:57,2.5,15,2.5,15,4.8,15
2012/3/7 5:58,2.6,15,2.6,15,3.9,15
2012/3/7 5:59,2.6,15,2.7,15,4.3,16
2012/3/7 6:00,2.6,15,2.7,15,4.5,15
2012/3/7 6:01,2.6,15,2.6,15,4.9,1
2012/3/7 6:02,2.6,15,2.6,15,3.2,14
2012/3/7 6:03,2.7,15,2.7,15,4.9,15
2012/3/7 6:04,2.7,15,2.7,15,3,14
2012/3/7 6:05,2.6,15,2.7,15,2.5,14
2012/3/7 6:06,2.4,15,2.6,15,1.4,16
2012/3/7 6:07,2.2,15,2.3,15,2.4,12
2012/3/7 6:08,2,15,2.2,15,2.1,12
2012/3/7 6:09,1.9,15,2,15,2.4,1
2012/3/7 6:10,1.7,15,1.9,15,2.2,15
2012/3/7 6:11,1.6,15,1.7,15,2.9,15
2012/3/7 6:12,1.5,15,1.6,15,1.8,15
2012/3/7 6:13,1.4,15,1.5,15,2.2,15
2012/3/7 6:14,1.3,15,1.4,15,2.2,14
2012/3/7 6:15,1.3,15,1.3,15,1.9,14
2012/3/7 6:16,1.5,15,1.5,15,3.3,14
2012/3/7 6:17,1.5,15,1.5,15,2.7,14
2012/3/7 6:18,1.6,15,1.6,15,2.2,15
2012/3/7 6:19,1.6,15,1.6,15,2,16
2012/3/7 6:20,1.6,15,1.6,15,1.6,14
2012/3/7 6:21,1.5,14,1.6,15,2.1,14
2012/3/7 6:22,1.6,15,1.6,15,2.4,15
2012/3/7 6:23,1.6,14,1.6,15,2.5,14
2012/3/7 6:24,1.7,14,1.7,14,2.6,14
2012/3/7 6:25,1.8,15,1.8,15,2.9,15
2012/3/7 6:26,1.7,14,1.8,15,2.1,13
2012/3/7 6:27,1.7,14,1.7,15,2,14
2012/3/7 6:28,1.6,14,1.7,15,2.2,13
2012/3/7 6:29,1.6,14,1.6,15,1.6,14
2012/3/7 6:30,1.6,14,1.6,15,1.3,16
2012/3/7 6:31,1.6,14,1.6,15,2.1,16
2012/3/7 6:32,1.6,14,1.6,15,2.9,15
2012/3/7 6:33,1.6,14,1.6,15,3.5,16
2012/3/7 6:34,1.6,14,1.6,15,2.4,14
2012/3/7 6:35,1.5,14,1.6,15,1.9,13
2012/3/7 6:36,1.5,14,1.5,14,2.7,15
2012/3/7 6:37,1.5,14,1.5,14,2.5,15
2012/3/7 6:38,1.5,15,1.5,14,2.5,15
2012/3/7 6:39,1.6,14,1.6,14,2.1,15
2012/3/7 6:40,1.5,14,1.6,14,1.4,15
2012/3/7 6:41,1.5,14,1.5,14,1.9,15
2012/3/7 6:42,1.4,14,1.5,14,3.5,15
2012/3/7 6:43,1.3,14,1.4,14,1.9,15
2012/3/7 6:44,1.3,14,1.3,14,1.8,15
2012/3/7 6:45,1.2,15,1.3,15,1.4,16
2012/3/7 6:46,1.2,15,1.2,15,2.1,15
2012/3/7 6:47,1.3,15,1.3,15,2.2,15
2012/3/7 6:48,1.3,15,1.3,15,2.1,14
2012/3/7 6:49,1.3,15,1.3,14,2.2,15
2012/3/7 6:50,1.3,15,1.3,14,2.2,16
2012/3/7 6:51,1.4,15,1.4,14,2.4,16
2012/3/7 6:52,1.4,15,1.4,14,2.7,16
2012/3/7 6:53,1.5,15,1.5,15,2.6,16
2012/3/7 6:54,1.6,15,1.6,15,2.5,16
2012/3/7 6:55,1.6,15,1.7,15,2,16
2012/3/7 6:56,1.6,15,1.7,15,2.1,15
2012/3/7 6:57,1.6,15,1.6,15,2,15
2012/3/7 6:58,1.6,15,1.6,15,1.8,15
2012/3/7 6:59,1.6,15,1.6,15,1.9,14
2012/3/7 7:00,1.6,15,1.6,15,2.5,14
2012/3/7 7:01,1.6,15,1.6,15,2.5,16
2012/3/7 7:02,1.7,15,1.7,15,2.7,16
2012/3/7 7:03,1.6,15,1.7,15,2.2,16
2012/3/7 7:04,1.6,15,1.6,15,2.1,16
2012/3/7 7:05,1.6,15,1.6,15,2.1,15
2012/3/7 7:06,1.6,15,1.6,15,2.5,16
2012/3/7 7:07,1.6,15,1.6,15,2.5,16
2012/3/7 7:08,1.7,15,1.7,15,2.2,15
2012/3/7 7:09,1.7,15,1.7,15,2.4,16
2012/3/7 7:10,1.6,15,1.7,15,2.6,16
2012/3/7 7:11,1.6,15,1.7,15,2.4,15
2012/3/7 7:12,1.6,16,1.6,15,2.1,15
2012/3/7 7:13,1.6,16,1.6,15,2,1
2012/3/7 7:14,1.6,15,1.6,15,2.5,15
2012/3/7 7:15,1.6,16,1.6,15,2.1,1
2012/3/7 7:16,1.5,16,1.6,15,2,1
2012/3/7 7:17,1.4,16,1.6,15,2.1,16
2012/3/7 7:18,1.3,16,1.4,15,1.8,15
2012/3/7 7:19,1.3,16,1.3,15,2.2,15
2012/3/7 7:20,1.3,16,1.3,15,1.6,16
2012/3/7 7:21,1.3,16,1.3,15,2.4,15
2012/3/7 7:22,1.2,16,1.3,16,1.5,15
2012/3/7 7:23,1.1,16,1.2,16,0.9,16
2012/3/7 7:24,1,15,1.1,15,1,8
2012/3/7 7:25,0.9,16,1,16,0.6,3
2012/3/7 7:26,0.8,16,0.9,16,0.6,16
2012/3/7 7:27,0.8,16,0.8,16,1.9,1
2012/3/7 7:28,0.9,16,0.9,16,1.6,1
2012/3/7 7:29,0.8,16,0.9,16,1.4,1
2012/3/7 7:30,0.8,16,0.8,16,1.3,2
2012/3/7 7:31,0.7,16,0.8,16,2.2,15
2012/3/7 7:32,0.7,1,0.7,16,2.2,15
2012/3/7 7:33,0.8,1,0.8,16,1.6,4
2012/3/7 7:34,0.9,1,0.9,16,2.5,3
2012/3/7 7:35,1,1,1,1,2.5,1
2012/3/7 7:36,1.1,1,1.1,1,2.5,2
2012/3/7 7:37,1.2,1,1.2,1,3.7,15
2012/3/7 7:38,1.3,1,1.3,1,3.8,16
2012/3/7 7:39,1.5,1,1.5,1,3.3,16
2012/3/7 7:40,1.7,16,1.7,16,5.4,15
2012/3/7 7:41,1.8,16,1.8,16,5.4,15
2012/3/7 7:42,1.8,16,1.9,16,2,15
2012/3/7 7:43,1.9,16,1.9,16,1.9,1
2012/3/7 7:44,2,16,2,16,5,15
2012/3/7 7:45,2.2,15,2.2,15,5.7,15
2012/3/7 7:46,2.4,16,2.4,16,5.8,1
2012/3/7 7:47,2.4,16,2.4,16,3.7,15
2012/3/7 7:48,2.4,16,2.4,16,3.5,16
2012/3/7 7:49,2.4,16,2.4,16,4.4,15
2012/3/7 7:50,2.4,16,2.4,16,5.2,16
2012/3/7 7:51,2.5,16,2.5,16,5.1,16
2012/3/7 7:52,2.7,16,2.7,16,6.5,16
2012/3/7 7:53,2.9,16,2.9,16,6,2
2012/3/7 7:54,2.9,16,3,16,4.3,15
2012/3/7 7:55,2.9,16,2.9,16,4.9,16
2012/3/7 7:56,3.1,16,3.1,16,8.7,16
2012/3/7 7:57,3.2,16,3.2,16,5.5,16
2012/3/7 7:58,3.3,16,3.3,16,5.1,16
2012/3/7 7:59,3.4,16,3.4,16,4.5,16
2012/3/7 8:00,3.4,16,3.4,16,6.8,15
2012/3/7 8:01,3.5,16,3.5,16,5.7,16
2012/3/7 8:02,3.4,16,3.5,16,4.8,16
2012/3/7 8:03,3.5,16,3.5,16,6.2,14
2012/3/7 8:04,3.4,16,3.5,16,5,16
2012/3/7 8:05,3.3,16,3.4,16,5,15
2012/3/7 8:06,3,16,3.2,16,4.8,15
2012/3/7 8:07,3.1,16,3.1,16,6.5,15
2012/3/7 8:08,3.1,16,3.1,16,4.8,16
2012/3/7 8:09,3,16,3.1,16,5.1,16
2012/3/7 8:10,3.1,16,3.2,16,6,16
2012/3/7 8:11,2.9,16,3.1,16,3.8,16
2012/3/7 8:12,3,16,3,16,4.8,15
2012/3/7 8:13,2.9,16,3,16,4.3,14
2012/3/7 8:14,3.1,16,3.1,16,8.2,15
2012/3/7 8:15,3.3,16,3.3,16,7,15
2012/3/7 8:16,3.3,16,3.4,16,4.3,15
2012/3/7 8:17,3.3,16,3.3,16,5.6,14
2012/3/7 8:18,3.4,16,3.4,16,6.3,15
2012/3/7 8:19,3.3,15,3.4,16,4.3,2
2012/3/7 8:20,3.2,15,3.3,16,3.9,1
2012/3/7 8:21,3.2,16,3.3,16,3,2
2012/3/7 8:22,3.1,16,3.2,16,3.7,15
2012/3/7 8:23,2.9,16,3,16,2.2,15
2012/3/7 8:24,2.6,16,2.9,16,2.4,16
2012/3/7 8:25,2.4,16,2.6,16,3.5,16
2012/3/7 8:26,2.4,16,2.4,16,3.9,16
2012/3/7 8:27,2.3,16,2.4,16,5.4,15
2012/3/7 8:28,2.3,16,2.3,15,6.5,16
2012/3/7 8:29,2.5,16,2.5,15,6.9,16
2012/3/7 8:30,2.5,16,2.6,16,5.1,16
2012/3/7 8:31,2.6,16,2.6,16,4.4,1
2012/3/7 8:32,2.7,16,2.7,16,6.3,16
2012/3/7 8:33,2.8,16,2.8,16,5,14
2012/3/7 8:34,3.3,16,3.3,16,8.7,16
2012/3/7 8:35,3.5,16,3.5,16,7.7,16
2012/3/7 8:36,3.6,16,3.6,16,7.4,16
2012/3/7 8:37,4,16,4,16,8.4,16
2012/3/7 8:38,4,16,4,16,8.2,15
2012/3/7 8:39,4,16,4,16,7.8,16
2012/3/7 8:40,4.1,16,4.1,16,8.1,16
2012/3/7 8:41,4.4,16,4.4,16,7.2,15
2012/3/7 8:42,4.5,16,4.5,16,9,16
2012/3/7 8:43,4.6,16,4.6,16,6,15
2012/3/7 8:44,4.3,16,4.6,16,5,14
2012/3/7 8:45,4.1,16,4.3,16,7.8,1
2012/3/7 8:46,4.2,16,4.2,16,7.7,15
2012/3/7 8:47,4,16,4.2,16,8.5,16
2012/3/7 8:48,4,16,4,16,6.3,16
2012/3/7 8:49,3.9,16,4,16,6.2,15
2012/3/7 8:50,3.9,16,3.9,16,6.1,14
2012/3/7 8:51,3.8,16,3.9,16,6.1,16
2012/3/7 8:52,3.4,16,3.7,16,4.2,1
2012/3/7 8:53,3.3,16,3.4,16,4.7,16
2012/3/7 8:54,3.6,16,3.6,16,8.6,15
2012/3/7 8:55,3.8,16,3.8,16,8.1,15
2012/3/7 8:56,4.1,16,4.1,16,10.8,15
2012/3/7 8:57,4.1,16,4.1,16,8.9,16
2012/3/7 8:58,4.1,16,4.1,16,7,16
2012/3/7 8:59,4.3,16,4.3,16,9,15
2012/3/7 9:00,4.3,16,4.3,16,6.1,16
2012/3/7 9:01,4.4,16,4.4,16,7,1
2012/3/7 9:02,4.9,16,4.9,16,9.8,16
2012/3/7 9:03,5.2,16,5.2,16,8.1,16
2012/3/7 9:04,5.1,16,5.2,16,6.4,15
2012/3/7 9:05,5,16,5.1,16,7.4,15
2012/3/7 9:06,4.8,16,4.9,16,9.3,15
2012/3/7 9:07,4.8,16,4.8,16,7.6,15
2012/3/7 9:08,4.6,16,4.8,16,7.9,1
2012/3/7 9:09,4.2,16,4.6,16,3,15
2012/3/7 9:10,3.9,16,4.2,16,2.2,16
2012/3/7 9:11,3.9,16,3.9,16,5.6,14
2012/3/7 9:12,3.5,16,3.8,16,5.6,16
2012/3/7 9:13,3.3,16,3.4,16,5.1,16
2012/3/7 9:14,3,16,3.3,16,2.5,16
2012/3/7 9:15,2.8,16,3,16,3,16
2012/3/7 9:16,2.5,16,2.8,16,4.8,16
2012/3/7 9:17,2.3,16,2.5,16,6.7,15
2012/3/7 9:18,2.3,16,2.3,16,4.7,3
2012/3/7 9:19,2.4,16,2.4,16,4.5,2
2012/3/7 9:20,2.6,16,2.6,16,5.6,16
2012/3/7 9:21,2.5,1,2.6,16,5.6,16
2012/3/7 9:22,2.4,1,2.5,16,3.1,2
2012/3/7 9:23,2.3,1,2.4,16,5.5,15
2012/3/7 9:24,2.5,1,2.5,16,6.1,15
2012/3/7 9:25,2.6,16,2.6,16,5.1,15
2012/3/7 9:26,2.7,16,2.7,16,4.9,1
2012/3/7 9:27,2.6,16,2.7,16,3.6,15
2012/3/7 9:28,2.6,16,2.6,16,3.7,15
2012/3/7 9:29,2.5,16,2.5,16,4.8,16
2012/3/7 9:30,2.6,15,2.6,16,7.4,15
2012/3/7 9:31,2.8,15,2.8,15,8.4,14
2012/3/7 9:32,2.9,15,2.9,15,6.2,14
2012/3/7 9:33,3.1,15,3.1,15,5.4,14
2012/3/7 9:34,3,15,3.1,15,4.8,14
2012/3/7 9:35,3.1,15,3.1,15,7.8,15
2012/3/7 9:36,3.4,15,3.4,15,8.1,15
2012/3/7 9:37,3.6,15,3.6,15,6.3,14
2012/3/7 9:38,3.9,15,3.9,15,6.1,15
2012/3/7 9:39,4.1,15,4.1,15,6.5,16
2012/3/7 9:40,3.9,15,4.1,15,4.1,15
2012/3/7 9:41,3.7,16,3.9,15,4.7,16
2012/3/7 9:42,3.8,16,3.8,15,7.1,16
2012/3/7 9:43,3.8,16,3.9,15,7.7,15
2012/3/7 9:44,3.8,15,3.8,15,5.6,15
2012/3/7 9:45,3.7,15,3.8,15,5.1,15
2012/3/7 9:46,3.4,15,3.7,15,4.5,15
2012/3/7 9:47,3.2,15,3.4,15,5,1
2012/3/7 9:48,3.2,15,3.2,15,7,16
2012/3/7 9:49,3,16,3.2,15,6.1,16
2012/3/7 9:50,3.2,16,3.2,15,6.9,15
2012/3/7 9:51,3.3,15,3.3,16,6.3,15
2012/3/7 9:52,3.2,15,3.3,16,4.2,16
2012/3/7 9:53,3.1,15,3.2,16,6.4,15
2012/3/7 9:54,3.1,15,3.1,15,5.6,15
2012/3/7 9:55,3.1,15,3.1,15,7.4,14
2012/3/7 9:56,3.1,16,3.1,15,3.8,1
2012/3/7 9:57,3.1,16,3.1,16,4.4,14
2012/3/7 9:58,3,15,3.1,16,4.1,15
2012/3/7 9:59,2.9,15,3,16,3.1,16
2012/3/7 10:00,2.6,15,2.9,16,2.9,15
2012/3/7 10:01,2.6,15,2.6,15,6,15
2012/3/7 10:02,2.5,15,2.6,15,3.8,15
2012/3/7 10:03,2.7,15,2.7,15,6.1,15
2012/3/7 10:04,2.8,15,2.8,15,5.8,15
2012/3/7 10:05,2.6,15,2.8,15,2.9,15
2012/3/7 10:06,2.5,15,2.5,16,2.2,12
2012/3/7 10:07,2.4,15,2.4,16,1.9,16
2012/3/7 10:08,2.2,15,2.3,15,2.4,15
2012/3/7 10:09,2.2,15,2.2,15,3.3,14
2012/3/7 10:10,2.4,15,2.4,15,4.8,15
2012/3/7 10:11,2.3,15,2.4,15,4.2,15
2012/3/7 10:12,2.3,15,2.4,15,4.2,16
2012/3/7 10:13,2.2,15,2.3,15,5.5,15
2012/3/7 10:14,2.4,15,2.4,15,7,14
2012/3/7 10:15,2.6,15,2.6,15,7.1,16
2012/3/7 10:16,2.6,15,2.6,15,4.4,14
2012/3/7 10:17,2.9,15,2.9,15,6.5,15
2012/3/7 10:18,3,15,3,15,5.1,16
2012/3/7 10:19,3,15,3.1,15,3.6,14
2012/3/7 10:20,2.8,15,3,15,1.8,1
2012/3/7 10:21,2.7,15,2.8,15,2.4,15
2012/3/7 10:22,2.6,15,2.7,15,1.9,11
2012/3/7 10:23,2.3,15,2.6,15,0.5,4
2012/3/7 10:24,1.9,15,2.3,15,2.1,7
2012/3/7 10:25,1.6,15,1.8,15,2.4,6
2012/3/7 10:26,1.5,1,1.6,15,1.9,7
2012/3/7 10:27,1.2,3,1.5,15,1.4,4
2012/3/7 10:28,1,6,1.1,15,0.8,9
2012/3/7 10:29,0.7,8,0.9,15,0.8,15
2012/3/7 10:30,0.7,8,0.7,15,1.9,9
2012/3/7 10:31,0.7,8,0.7,15,1.9,7
2012/3/7 10:32,0.8,7,0.8,15,1.8,8
2012/3/7 10:33,0.9,7,0.9,15,2,6
2012/3/7 10:34,0.8,7,0.9,15,1.8,6
2012/3/7 10:35,0.8,8,0.8,15,2.6,14
2012/3/7 10:36,0.9,9,0.9,1,3.7,14
2012/3/7 10:37,1,10,1,3,3.7,1
2012/3/7 10:38,1.2,11,1.2,11,3.2,1
2012/3/7 10:39,1.3,12,1.3,11,3,14
2012/3/7 10:40,1.4,14,1.4,12,2.9,14
2012/3/7 10:41,1.5,14,1.5,14,2.9,14
2012/3/7 10:42,1.5,15,1.5,14,2.2,15
2012/3/7 10:43,1.5,15,1.5,14,2.2,2
2012/3/7 10:44,1.5,15,1.5,14,1.5,3
2012/3/7 10:45,1.5,16,1.5,14,1.6,16
2012/3/7 10:46,1.5,16,1.5,14,1.5,3
2012/3/7 10:47,1.4,16,1.4,14,1.6,4
2012/3/7 10:48,1.3,16,1.4,14,2.4,1
2012/3/7 10:49,1.2,1,1.3,14,2,1
2012/3/7 10:50,1.2,1,1.2,14,2.5,3
2012/3/7 10:51,1.3,2,1.3,14,2.9,7
2012/3/7 10:52,1.3,3,1.3,15,2.7,7
2012/3/7 10:53,1.3,3,1.3,15,2.1,6
2012/3/7 10:54,1.3,4,1.4,15,1.5,5
2012/3/7 10:55,1.3,4,1.3,16,2,7
2012/3/7 10:56,1.4,5,1.4,16,2.1,7
2012/3/7 10:57,1.4,5,1.4,16,1.1,6
2012/3/7 10:58,1.3,6,1.3,4,1.1,11
2012/3/7 10:59,1.2,6,1.3,4,1.4,13
2012/3/7 11:00,1.1,7,1.2,4,1,10
2012/3/7 11:01,1.1,6,1.1,4,4.3,3
2012/3/7 11:02,1.2,6,1.2,4,4.7,5
2012/3/7 11:03,1.4,5,1.4,4,4.9,4
2012/3/7 11:04,1.7,5,1.7,5,4.8,4
2012/3/7 11:05,1.9,5,1.9,5,4.3,5
2012/3/7 11:06,2.1,5,2.1,5,4.3,5
2012/3/7 11:07,2.2,5,2.2,5,3.2,7
2012/3/7 11:08,2.5,5,2.5,5,3.9,5
2012/3/7 11:09,2.8,5,2.8,5,5.2,5
2012/3/7 11:10,3,5,3,5,3.8,6
2012/3/7 11:11,3,5,3,5,3,6
2012/3/7 11:12,3,5,3,5,3.5,6
2012/3/7 11:13,2.8,5,2.9,5,2.9,6
2012/3/7 11:14,2.6,6,2.8,5,2.6,6
2012/3/7 11:15,2.5,5,2.6,5,2.4,4
2012/3/7 11:16,2.3,5,2.4,5,3.7,5
2012/3/7 11:17,2.3,5,2.3,5,3.5,6
2012/3/7 11:18,2.3,5,2.3,5,4.3,6
2012/3/7 11:19,2.2,5,2.3,5,3,6
2012/3/7 11:20,2.1,6,2.1,5,2.4,7
2012/3/7 11:21,2,6,2.1,5,2.6,7
2012/3/7 11:22,1.9,6,1.9,5,1.9,5
2012/3/7 11:23,1.8,5,1.8,6,1.9,5
2012/3/7 11:24,1.7,5,1.8,6,1.3,4
2012/3/7 11:25,1.6,6,1.7,5,1.3,6
2012/3/7 11:26,1.6,6,1.6,5,2.2,6
2012/3/7 11:27,1.5,6,1.6,5,1.8,7